LFBP

Pau Pyrénées Airport

Airport
ICAO code
LFBP
IATA Code
PUF
Summary
ICAO Region
EUR
ICAO Territory
Location

Uzein, Aquitaine

Serving
Pau
Elevation
616 ft
Coordinates
43° 22' 46" N , 0° 25' 6" W
KCC
Metar
LFBP 222000Z AUTO 24006KT 210V280 9999 RA SCT033 SCT039 BKN047 08/05 Q1010

Description

Pau Pyrénées Airport (French: Aéroport Pau Pyrénées) is an airport serving Pau, France. It is located 10 km northwest of Pau in Uzein.

Climatology

Temperate Marine climate/Oceanic climate (Köppen climate classification Cfb). Moderately cool summer and comparatively warm winter with a temperature range of only 14°C. Prevailing south-westerly winds from the Atlantic Ocean.

Runways

Designator Length Width Surface Rops
13/31 2500 45 ASP Yes/Yes

Airport map

Aerial View

SKYbrary Partners:

Safety knowledge contributed by: